Wind_Speed
9 10 10 10 10 11 11 12 12 12 12 13 14 16 19 20 22 23 23 24 24 24 24 24 24 24 24 24 25 25 25 26 27 28 28 28 28 28 28 30 31 31 32 33
9 9 8 9 9 9 9 10 11 12 12 13 13 14 17 20 22 22 23 23 23 23 23 22 23 24 24 24 25 25 25 25 25 27 28 28 28 29 30 30 30 31 32 32
8 7 8 8 8 8 8 9 10 11 13 14 15 14 15 19 21 22 22 22 22 22 22 22 22 23 24 24 23 25 26 25 26 27 28 28 28 29 30 30 30 31 31 32
7 7 7 7 8 9 9 9 11 12 13 14 15 14 12 16 18 20 21 20 21 21 22 22 22 23 23 23 23 24 25 25 26 26 27 29 28 29 29 30 30 31 31 32
7 7 7 8 8 9 9 9 10 12 13 14 14 14 11 12 15 18 19 20 20 21 21 22 22 22 22 23 23 24 25 26 25 26 26 27 27 27 28 29 29 30 31 33
9 8 7 8 8 9 10 10 11 11 12 13 13 15 13 13 14 16 18 19 20 20 20 21 22 22 24 24 25 25 25 25 25 26 25 25 25 26 28 29 30 30 32 34
8 8 8 8 9 10 10 11 12 12 13 13 13 14 13 14 14 16 17 18 19 20 20 20 21 22 24 24 24 25 25 25 24 24 24 24 25 26 28 29 30 31 33 34
8 9 9 9 10 10 11 11 12 13 13 13 12 12 13 13 14 16 18 19 20 20 20 20 21 21 22 22 22 23 23 24 24 24 24 25 26 26 27 28 29 30 32 32
9 9 9 9 10 11 11 12 12 13 13 13 13 13 12 13 15 17 18 19 20 21 21 20 21 20 21 21 21 21 22 22 22 23 24 25 26 26 25 26 28 30 31 32
10 10 10 11 12 12 12 12 12 12 14 14 14 14 14 14 15 17 18 19 20 20 21 21 21 21 20 20 20 20 20 20 21 22 23 25 26 26 26 26 27 28 29 31
11 11 12 12 12 13 13 13 13 14 14 14 15 14 15 15 15 16 17 18 18 19 20 20 20 20 20 19 20 20 20 20 21 22 22 23 24 25 25 26 26 28 29 30
13 13 13 13 14 14 14 14 15 15 15 16 16 16 15 16 15 16 16 16 17 18 19 19 19 19 19 18 18 19 19 20 20 21 22 22 23 24 24 25 26 27 27 27
14 15 15 15 14 14 14 14 15 16 17 17 17 17 16 15 13 14 14 14 15 16 17 18 18 19 19 18 19 18 18 19 20 21 22 23 23 24 24 25 26 26 27 27
16 16 16 16 16 15 15 15 16 17 18 18 17 17 16 15 14 14 14 14 15 17 17 17 18 19 19 19 19 20 19 20 21 21 22 22 24 25 26 26 26 26 26 27
18 18 18 18 18 17 17 16 17 17 17 18 17 17 16 15 15 15 15 15 16 17 18 18 18 19 20 20 20 21 21 22 22 22 22 23 24 25 26 26 26 27 26 26
20 20 19 20 19 19 19 18 18 18 18 18 17 16 15 15 16 16 16 16 16 17 18 18 19 20 20 21 22 22 23 23 23 23 24 24 25 26 26 26 27 27 27 27
22 21 22 22 21 21 21 19 19 18 18 18 18 17 17 17 17 17 17 17 17 18 19 20 20 20 21 21 22 22 22 23 23 23 24 25 25 26 25 26 27 26 26 26
23 23 23 23 23 24 21 20 19 20 19 19 19 18 18 19 19 18 18 18 19 19 20 21 21 21 20 21 22 22 22 23 23 24 24 25 25 25 26 26 26 27 27 27
25 25 25 25 25 24 23 22 21 21 21 20 21 20 20 20 20 20 19 19 19 19 20 21 21 21 21 21 22 23 23 23 23 23 24 24 25 26 26 26 26 27 27 28
27 27 27 26 26 25 23 23 23 23 22 21 21 21 21 21 21 20 19 19 19 20 20 21 21 21 22 22 23 23 23 23 23 23 24 25 25 26 26 27 27 28 28 28
28 28 28 28 28 27 26 25 25 25 24 23 23 22 22 22 21 20 20 20 20 20 21 21 21 22 22 22 23 24 24 24 24 24 25 25 26 27 27 28 28 28 29 29
32 31 31 30 30 28 27 27 26 26 25 25 24 24 24 23 23 22 22 22 21 21 21 22 22 23 23 24 25 25 26 26 26 26 26 27 27 28 28 28 28 28 28 28
35 34 34 34 33 31 30 30 29 28 27 26 26 26 26 25 24 23 23 23 23 24 23 24 24 24 25 25 26 26 27 27 27 27 28 28 28 28 28 28 28 28 29 29
37 37 37 36 35 33 33 32 31 31 30 29 29 29 28 27 26 26 25 25 25 26 26 26 26 26 26 27 27 28 28 28 28 28 28 28 29 29 29 30 30 30 30 30
38 38 37 37 35 35 34 34 34 33 33 32 31 31 31 30 29 28 27 27 27 27 28 28 28 29 29 29 29 29 28 28 29 29 30 30 30 31 31 31 32 32 32 32
38 38 38 37 36 37 36 35 35 35 35 34 34 33 33 31 30 30 29 29 29 29 30 30 31 31 31 30 30 30 31 31 31 31 31 32 32 32 32 33 34 34 34 34
Wind_Direction
258 257 260 263 261 260 258 257 255 255 258 258 256 251 247 245 244 244 245 246 246 247 248 252 253 257 262 266 268 267 267 269 269 268 269 272 273 275 277 277 276 276 275 275
260 259 260 262 258 259 261 258 253 252 258 263 263 261 253 249 247 245 246 246 245 245 246 250 253 258 262 266 267 267 269 272 273 271 271 272 274 275 278 279 279 277 276 277
265 263 261 262 261 259 265 263 259 263 264 267 269 268 261 255 249 246 246 246 244 247 250 252 256 261 263 265 266 268 271 272 273 273 273 273 275 277 278 278 279 279 279 279
266 266 264 263 263 263 267 266 264 268 272 272 273 273 269 263 252 248 249 248 246 249 251 255 259 262 262 263 266 268 270 271 271 273 275 275 276 280 281 280 281 282 282 282
266 266 262 265 267 265 267 270 275 275 276 279 278 276 274 265 257 253 251 249 250 253 256 257 258 260 261 263 266 268 272 272 271 273 277 277 279 280 280 283 285 284 285 285
265 262 264 268 267 267 268 273 278 280 282 284 282 280 274 271 268 260 256 252 250 252 254 256 259 261 264 267 268 271 272 271 272 274 277 278 282 282 282 284 287 288 288 288
257 260 271 274 268 269 272 275 280 284 285 286 284 281 280 280 275 266 259 256 254 254 255 259 262 263 265 268 270 271 271 272 272 274 276 279 283 285 285 286 288 290 291 292
257 264 271 278 278 276 275 278 280 286 289 290 286 284 288 283 278 274 264 259 256 256 257 260 262 266 266 267 269 269 269 271 272 274 276 279 285 286 289 290 291 291 292 293
265 268 274 282 284 282 280 280 282 289 293 292 291 290 291 285 279 277 270 264 261 259 260 262 264 268 269 267 269 269 270 272 274 276 277 282 286 288 291 292 293 293 294 295
270 271 276 283 284 284 286 282 282 288 295 294 293 293 296 292 283 282 278 270 265 262 262 265 268 269 272 270 271 271 272 274 277 278 280 284 288 289 290 293 295 296 297 298
276 276 279 282 283 283 284 279 280 283 287 294 297 300 301 300 293 290 284 275 268 265 265 266 270 272 275 276 274 272 273 277 280 281 282 287 289 290 290 294 298 298 297 299
275 276 278 281 282 281 281 280 281 283 287 291 298 303 305 303 297 295 291 282 273 269 268 267 270 272 274 277 277 279 277 279 284 284 283 287 290 291 293 297 299 299 300 302
273 278 280 280 281 281 282 282 283 285 286 288 294 301 304 303 300 296 295 285 274 270 270 270 270 273 273 274 277 279 280 279 284 285 284 286 290 292 295 299 301 301 302 303
270 275 278 280 282 281 281 282 283 285 286 288 293 298 300 299 296 294 291 283 275 271 272 274 274 275 278 278 278 281 282 283 285 287 287 287 290 292 294 299 302 303 304 305
270 273 275 276 277 277 279 280 281 284 287 287 291 294 296 294 292 291 290 284 276 274 274 275 276 276 279 279 278 280 283 286 287 289 289 290 292 293 295 297 300 302 303 305
269 271 273 274 274 274 276 278 280 283 284 286 286 287 293 291 289 288 290 286 278 275 276 276 278 281 282 282 280 281 284 286 288 289 290 291 293 294 296 297 300 301 303 305
268 270 271 272 272 271 273 278 279 282 285 285 283 284 287 288 288 288 287 286 281 276 274 275 277 281 283 283 281 284 284 285 288 290 290 292 294 294 295 298 300 302 304 306
268 270 272 274 274 272 275 276 278 279 280 283 283 281 283 284 284 284 284 284 280 277 275 274 277 280 282 282 283 284 286 286 288 290 290 291 292 294 295 298 302 302 303 303
268 270 272 274 275 274 273 274 277 279 279 281 282 281 281 282 282 283 283 281 279 278 277 277 278 277 278 279 282 285 287 289 290 291 292 293 294 296 298 300 302 302 303 305
269 270 271 273 275 276 277 274 274 277 279 281 283 281 280 281 282 284 282 279 275 275 277 278 278 279 278 278 281 285 288 289 291 292 294 295 298 299 300 301 301 302 303 305
268 268 269 271 273 276 278 277 275 276 281 282 281 279 279 279 281 280 279 279 276 275 276 277 277 278 279 280 282 286 288 290 292 293 295 296 297 298 298 300 301 302 303 305
267 268 269 271 272 275 276 275 276 277 278 279 279 278 278 279 280 280 280 280 278 277 278 278 277 277 279 282 285 287 289 290 292 293 294 295 296 296 296 297 299 301 303 305
264 267 270 272 273 274 274 274 274 275 275 276 277 278 279 279 280 280 280 279 278 278 278 278 278 278 279 281 285 287 289 289 290 292 293 294 295 296 297 297 299 301 303 304
263 265 268 270 271 271 270 271 272 273 273 274 276 276 278 279 280 280 279 278 278 277 277 278 278 279 279 281 284 286 289 290 290 291 292 293 295 296 296 297 298 300 302 303
263 264 266 269 270 269 268 269 269 269 270 271 273 274 275 276 278 279 279 278 278 278 278 278 279 280 281 283 284 285 287 289 290 290 290 291 292 293 294 295 297 298 299 300
262 263 265 267 267 267 267 267 266 267 267 269 270 271 272 273 275 275 277 277 278 278 277 278 279 280 281 282 283 284 286 288 290 291 291 292 292 293 294 295 296 297 297 298
Height
5735 5736 5735 5735 5734 5734 5733 5733 5733 5733 5733 5733 5733 5733 5734 5735 5737 5739 5740 5742 5744 5745 5746 5747 5748 5749 5749 5749 5748 5748 5747 5747 5747 5746 5746 5745 5744 5742 5741 5740 5738 5737 5735 5734
5734 5733 5733 5732 5732 5731 5731 5731 5731 5730 5730 5729 5730 5730 5730 5730 5732 5733 5734 5736 5738 5739 5740 5742 5742 5743 5742 5742 5742 5742 5741 5741 5740 5739 5739 5738 5737 5735 5734 5732 5730 5729 5727 5726
5732 5732 5731 5730 5730 5729 5729 5729 5729 5728 5728 5727 5727 5727 5727 5726 5726 5728 5729 5731 5732 5733 5735 5736 5736 5736 5736 5736 5736 5736 5735 5735 5734 5733 5732 5731 5730 5728 5727 5725 5723 5721 5720 5718
5730 5730 5729 5729 5728 5728 5728 5727 5726 5726 5725 5724 5724 5723 5724 5722 5722 5724 5725 5726 5727 5728 5730 5730 5730 5730 5730 5731 5730 5730 5729 5728 5727 5726 5725 5724 5723 5722 5720 5718 5716 5714 5712 5711
5728 5728 5728 5727 5727 5726 5725 5725 5724 5723 5722 5721 5720 5719 5721 5719 5718 5719 5720 5721 5722 5723 5724 5725 5725 5725 5725 5724 5724 5724 5723 5722 5721 5720 5719 5718 5717 5715 5713 5711 5709 5708 5705 5703
5727 5726 5726 5725 5725 5724 5723 5723 5722 5721 5719 5719 5718 5717 5717 5716 5715 5715 5716 5716 5717 5718 5718 5719 5719 5719 5719 5719 5718 5717 5716 5716 5715 5714 5712 5711 5710 5708 5707 5705 5703 5700 5698 5696
5725 5725 5724 5723 5723 5722 5722 5721 5720 5718 5717 5716 5715 5713 5714 5713 5712 5711 5711 5712 5712 5713 5713 5714 5714 5713 5713 5712 5712 5711 5711 5709 5708 5707 5706 5705 5703 5701 5700 5698 5696 5694 5691 5688
5723 5723 5722 5721 5721 5720 5719 5719 5718 5716 5714 5713 5712 5710 5712 5710 5708 5707 5707 5707 5707 5708 5708 5708 5708 5708 5707 5706 5705 5705 5704 5703 5703 5701 5700 5699 5697 5695 5693 5691 5689 5687 5684 5680
5721 5721 5721 5719 5718 5718 5716 5715 5715 5713 5711 5710 5709 5709 5708 5706 5705 5704 5703 5702 5702 5703 5703 5703 5702 5702 5701 5700 5700 5699 5698 5698 5697 5696 5695 5693 5691 5689 5687 5685 5682 5680 5676 5673
5719 5719 5718 5717 5716 5715 5714 5713 5712 5710 5708 5707 5706 5705 5705 5703 5701 5700 5698 5697 5697 5698 5698 5697 5697 5696 5695 5695 5694 5694 5693 5692 5692 5690 5689 5687 5685 5683 5681 5678 5675 5672 5669 5665
5716 5716 5716 5714 5713 5712 5711 5710 5708 5707 5706 5704 5702 5705 5701 5699 5696 5695 5693 5692 5692 5693 5693 5692 5692 5691 5690 5690 5689 5688 5688 5687 5686 5685 5683 5681 5679 5677 5674 5671 5669 5666 5662 5659
5713 5713 5712 5711 5710 5708 5707 5707 5706 5705 5703 5701 5699 5702 5697 5695 5692 5690 5688 5688 5687 5688 5688 5687 5687 5686 5685 5684 5684 5683 5682 5682 5680 5679 5677 5675 5673 5671 5668 5665 5662 5659 5656 5652
5709 5708 5708 5707 5708 5706 5704 5703 5702 5700 5699 5697 5695 5697 5693 5690 5688 5686 5684 5683 5683 5683 5683 5683 5683 5682 5681 5680 5679 5678 5677 5676 5675 5673 5672 5670 5668 5665 5662 5659 5656 5653 5649 5646
5704 5704 5704 5703 5702 5700 5700 5699 5697 5696 5694 5693 5692 5692 5690 5687 5684 5683 5681 5680 5679 5679 5679 5679 5679 5677 5676 5675 5674 5673 5672 5671 5670 5668 5666 5664 5661 5659 5656 5654 5650 5647 5643 5639
5699 5699 5698 5698 5697 5696 5695 5695 5693 5691 5690 5689 5688 5687 5686 5683 5681 5679 5677 5676 5675 5675 5675 5674 5674 5673 5672 5670 5669 5668 5667 5666 5664 5662 5660 5658 5655 5653 5650 5647 5644 5641 5637 5633
5693 5693 5693 5693 5692 5690 5690 5689 5688 5687 5685 5684 5683 5682 5681 5679 5677 5675 5673 5672 5671 5671 5670 5670 5669 5668 5667 5666 5664 5663 5661 5660 5658 5656 5654 5652 5649 5647 5644 5641 5638 5635 5631 5627
5688 5687 5687 5687 5686 5684 5685 5685 5683 5682 5681 5680 5678 5678 5676 5674 5672 5671 5669 5668 5667 5666 5666 5665 5664 5664 5662 5660 5659 5657 5656 5654 5652 5650 5648 5646 5643 5641 5638 5635 5632 5629 5625 5621
5682 5681 5680 5680 5680 5678 5683 5680 5678 5677 5676 5675 5673 5672 5671 5669 5667 5666 5665 5663 5662 5661 5661 5660 5659 5658 5656 5655 5653 5652 5650 5648 5646 5644 5642 5640 5637 5635 5632 5629 5626 5623 5619 5616
5675 5675 5673 5673 5671 5672 5675 5674 5672 5671 5671 5669 5667 5666 5665 5663 5662 5661 5660 5658 5657 5656 5655 5654 5653 5652 5651 5649 5648 5646 5645 5643 5640 5638 5636 5633 5631 5628 5625 5623 5620 5616 5613 5609
5668 5667 5667 5666 5664 5665 5670 5668 5665 5665 5664 5664 5661 5660 5658 5657 5657 5657 5654 5653 5651 5650 5649 5648 5647 5646 5645 5644 5642 5641 5638 5636 5634 5632 5629 5627 5624 5621 5619 5616 5613 5609 5606 5603
5659 5659 5659 5658 5657 5658 5661 5659 5658 5658 5659 5656 5654 5653 5651 5651 5651 5650 5648 5647 5646 5645 5644 5642 5641 5640 5639 5638 5636 5634 5632 5630 5628 5625 5623 5620 5617 5615 5612 5609 5606 5602 5599 5595
5650 5650 5651 5650 5649 5653 5653 5651 5651 5651 5649 5648 5646 5645 5645 5644 5643 5642 5641 5640 5639 5638 5637 5636 5635 5634 5633 5631 5629 5627 5625 5623 5621 5618 5616 5613 5610 5608 5605 5602 5598 5595 5592 5588
5641 5643 5642 5642 5644 5645 5643 5643 5643 5642 5641 5640 5638 5638 5637 5636 5636 5635 5634 5633 5632 5631 5630 5629 5628 5627 5626 5624 5622 5620 5618 5615 5613 5611 5608 5605 5603 5600 5597 5594 5591 5587 5584 5580
5631 5632 5631 5632 5634 5634 5634 5633 5633 5633 5632 5631 5630 5630 5629 5628 5628 5627 5627 5626 5625 5624 5623 5622 5620 5619 5618 5616 5614 5612 5610 5607 5605 5602 5600 5597 5594 5592 5589 5586 5583 5579 5576 5572
5621 5620 5621 5622 5624 5623 5623 5623 5623 5623 5622 5622 5621 5621 5620 5620 5619 5619 5618 5617 5616 5615 5614 5613 5612 5611 5609 5607 5606 5604 5601 5599 5596 5594 5591 5589 5586 5583 5580 5577 5574 5571 5567 5564
5610 5610 5610 5612 5613 5612 5613 5613 5612 5612 5612 5612 5612 5611 5610 5610 5610 5609 5609 5608 5607 5606 5605 5604 5603 5601 5600 5598 5596 5594 5592 5590 5587 5585 5582 5580 5577 5574 5571 5568 5565 5561 5558 5554